BWA345 MKJP-TNCM

Flight info

Callsign BWA345
Flight time 1h 51m
Altitude 35000
Route ENEKA7 MLY UG633 KEBET UL577 ANTEX L577 GOUDA L204 PJM
Aircraft B38M/M-SDE1FGHILORVWXY/HB1

Departure

Time 2026-05-08 14:03
Airport Norman Manley International Airport (MKJP)

Arrival

Time 2026-05-08 15:55
Airport Princess Juliana International Airport (TNCM)
Time Latitude Longitude Altitude Speed Heading
2026-05-08 13:44 17.93572 -76.78040 31 ft 0 kts 102°
2026-05-08 13:52 17.93574 -76.78050 31 ft 2 kts 102°
2026-05-08 13:53 17.93577 -76.78066 31 ft 2 kts 102°
2026-05-08 13:53 17.93581 -76.78082 31 ft 2 kts 102°
2026-05-08 13:53 17.93584 -76.78097 31 ft 2 kts 102°
2026-05-08 13:53 17.93588 -76.78113 31 ft 2 kts 127°
2026-05-08 13:54 17.93599 -76.78123 31 ft 2 kts 155°
2026-05-08 13:54 17.93614 -76.78127 31 ft 2 kts 185°
2026-05-08 13:54 17.93623 -76.78124 31 ft 1 kts 202°
2026-05-08 13:54 17.93628 -76.78122 31 ft 0 kts 202°
2026-05-08 13:59 17.93626 -76.78123 31 ft 1 kts 202°
2026-05-08 13:59 17.93583 -76.78142 31 ft 11 kts 202°
2026-05-08 13:59 17.93522 -76.78201 31 ft 14 kts 281°
2026-05-08 14:00 17.93566 -76.78333 29 ft 24 kts 291°
2026-05-08 14:00 17.93646 -76.78530 30 ft 33 kts 292°
2026-05-08 14:00 17.93735 -76.78764 30 ft 33 kts 292°
2026-05-08 14:00 17.93828 -76.79000 31 ft 38 kts 292°
2026-05-08 14:01 17.93933 -76.79265 31 ft 38 kts 292°
2026-05-08 14:01 17.94024 -76.79514 31 ft 35 kts 291°
2026-05-08 14:01 17.94100 -76.79749 30 ft 32 kts 278°
2026-05-08 14:01 17.94076 -76.79914 28 ft 10 kts 206°
2026-05-08 14:02 17.94024 -76.79931 29 ft 0 kts 191°
2026-05-08 14:02 17.94020 -76.79926 29 ft 2 kts 112°
2026-05-08 14:02 17.94017 -76.79916 29 ft 1 kts 111°
2026-05-08 14:02 17.93978 -76.79816 30 ft 39 kts 111°
2026-05-08 14:03 17.93786 -76.79316 31 ft 105 kts 112°
2026-05-08 14:03 17.93438 -76.78405 31 ft 158 kts 112°
2026-05-08 14:03 17.92989 -76.77271 351 ft 172 kts 113°
2026-05-08 14:03 17.92506 -76.76198 1125 ft 162 kts 114°
2026-05-08 14:04 17.92012 -76.75093 1624 ft 172 kts 114°
2026-05-08 14:04 17.91490 -76.73914 2029 ft 191 kts 114°
2026-05-08 14:04 17.90883 -76.72578 2439 ft 210 kts 114°
2026-05-08 14:04 17.90247 -76.71214 3107 ft 217 kts 114°
2026-05-08 14:05 17.89538 -76.69696 3372 ft 247 kts 114°
2026-05-08 14:05 17.88749 -76.67992 3869 ft 260 kts 114°
2026-05-08 14:05 17.87964 -76.66329 4768 ft 257 kts 120°
2026-05-08 14:05 17.86698 -76.64987 5367 ft 268 kts 148°
2026-05-08 14:06 17.85040 -76.64052 5972 ft 271 kts 142°
2026-05-08 14:06 17.83839 -76.62573 6560 ft 269 kts 110°
2026-05-08 14:06 17.83630 -76.60655 7138 ft 272 kts 77°
2026-05-08 14:06 17.84340 -76.58826 7753 ft 276 kts 63°
2026-05-08 14:07 17.85225 -76.57002 8383 ft 279 kts 67°
2026-05-08 14:07 17.85894 -76.55118 8949 ft 284 kts 73°
2026-05-08 14:07 17.86399 -76.53085 9598 ft 287 kts 76°
2026-05-08 14:07 17.86820 -76.51050 10242 ft 290 kts 77°
2026-05-08 14:08 17.87246 -76.48912 10627 ft 303 kts 77°
2026-05-08 14:08 17.87694 -76.46712 10977 ft 317 kts 77°
2026-05-08 14:08 17.88171 -76.44421 11310 ft 330 kts 76°
2026-05-08 14:08 17.88670 -76.42054 11920 ft 332 kts 76°
2026-05-08 14:09 17.89170 -76.39687 12544 ft 335 kts 76°
2026-05-08 14:09 17.89672 -76.37318 13154 ft 337 kts 76°
2026-05-08 14:09 17.90183 -76.34898 13815 ft 338 kts 76°
2026-05-08 14:09 17.90694 -76.32481 14460 ft 340 kts 76°
2026-05-08 14:10 17.91204 -76.30064 15094 ft 342 kts 76°
2026-05-08 14:10 17.91715 -76.27639 15739 ft 342 kts 76°
2026-05-08 14:10 17.92227 -76.25208 16371 ft 343 kts 76°
2026-05-08 14:10 17.92740 -76.22775 16992 ft 344 kts 76°
2026-05-08 14:11 17.93254 -76.20332 17542 ft 347 kts 76°
2026-05-08 14:11 17.93778 -76.17842 18002 ft 352 kts 76°
2026-05-08 14:11 17.94309 -76.15316 18514 ft 355 kts 75°
2026-05-08 14:11 17.94844 -76.12775 18982 ft 359 kts 75°
2026-05-08 14:12 17.95382 -76.10210 19450 ft 362 kts 75°
2026-05-08 14:12 17.95923 -76.07634 19914 ft 366 kts 75°
2026-05-08 14:12 17.96468 -76.05036 20365 ft 369 kts 75°
2026-05-08 14:12 17.97019 -76.02402 20797 ft 372 kts 75°
2026-05-08 14:13 17.97583 -75.99711 21230 ft 375 kts 75°
2026-05-08 14:13 17.98142 -75.97041 21670 ft 378 kts 75°
2026-05-08 14:13 17.98706 -75.94347 22066 ft 381 kts 74°
2026-05-08 14:13 17.99276 -75.91621 22444 ft 385 kts 74°
2026-05-08 14:14 17.99854 -75.88858 22400 ft 389 kts 74°
2026-05-08 14:14 18.00427 -75.86103 22350 ft 383 kts 74°
2026-05-08 14:14 18.00990 -75.83387 22346 ft 382 kts 74°
2026-05-08 14:14 18.01557 -75.80660 22347 ft 383 kts 74°
2026-05-08 14:15 18.02129 -75.77910 22346 ft 384 kts 74°
2026-05-08 14:15 18.02696 -75.75182 22346 ft 383 kts 74°
2026-05-08 14:15 18.03258 -75.72476 22348 ft 383 kts 74°
2026-05-08 14:15 18.03826 -75.69741 22349 ft 384 kts 74°
2026-05-08 14:16 18.04396 -75.67000 22347 ft 384 kts 74°
2026-05-08 14:16 18.04959 -75.64282 22347 ft 383 kts 74°
2026-05-08 14:16 18.05524 -75.61550 22347 ft 383 kts 74°
2026-05-08 14:16 18.06089 -75.58816 22345 ft 383 kts 74°
2026-05-08 14:17 18.06653 -75.56087 22347 ft 382 kts 74°
2026-05-08 14:17 18.07220 -75.53348 22350 ft 383 kts 74°
2026-05-08 14:17 18.07778 -75.50646 22354 ft 384 kts 74°
2026-05-08 14:17 18.08350 -75.47872 22355 ft 383 kts 74°
2026-05-08 14:18 18.08908 -75.45167 22358 ft 384 kts 74°
2026-05-08 14:18 18.09470 -75.42437 22361 ft 383 kts 74°
2026-05-08 14:18 18.10031 -75.39709 22362 ft 383 kts 74°
2026-05-08 14:18 18.10598 -75.36952 22365 ft 383 kts 74°
2026-05-08 14:19 18.11164 -75.34197 22366 ft 383 kts 75°
2026-05-08 14:19 18.11724 -75.31471 22367 ft 383 kts 75°
2026-05-08 14:19 18.12281 -75.28758 22368 ft 382 kts 74°
2026-05-08 14:19 18.12841 -75.26026 22366 ft 383 kts 75°
2026-05-08 14:20 18.13404 -75.23280 22378 ft 384 kts 74°
2026-05-08 14:20 18.13968 -75.20531 22792 ft 387 kts 74°
2026-05-08 14:20 18.14534 -75.17767 23292 ft 388 kts 75°
2026-05-08 14:20 18.15098 -75.15011 23660 ft 392 kts 75°
2026-05-08 14:21 18.15673 -75.12201 24095 ft 394 kts 75°
2026-05-08 14:21 18.16252 -75.09369 24492 ft 398 kts 75°
2026-05-08 14:21 18.16834 -75.06518 24914 ft 400 kts 75°
2026-05-08 14:21 18.17420 -75.03645 25300 ft 403 kts 75°
2026-05-08 14:22 18.18001 -75.00792 25667 ft 406 kts 75°
2026-05-08 14:22 18.18593 -74.97882 26082 ft 408 kts 75°
2026-05-08 14:22 18.19191 -74.94945 26391 ft 412 kts 75°
2026-05-08 14:22 18.19787 -74.92011 26781 ft 414 kts 75°
2026-05-08 14:23 18.20388 -74.89051 27119 ft 417 kts 75°
2026-05-08 14:23 18.20992 -74.86075 27469 ft 419 kts 75°
2026-05-08 14:23 18.21596 -74.83096 27821 ft 421 kts 75°
2026-05-08 14:23 18.22213 -74.80048 28140 ft 424 kts 75°
2026-05-08 14:24 18.22820 -74.77051 28483 ft 426 kts 76°
2026-05-08 14:24 18.23438 -74.73996 28802 ft 429 kts 76°
2026-05-08 14:24 18.24064 -74.70892 29110 ft 431 kts 76°
2026-05-08 14:24 18.24688 -74.67804 29387 ft 434 kts 76°
2026-05-08 14:25 18.25294 -74.64716 29696 ft 437 kts 77°
2026-05-08 14:25 18.25823 -74.61536 29989 ft 440 kts 78°
2026-05-08 14:25 18.26284 -74.58353 30283 ft 442 kts 79°
2026-05-08 14:25 18.26721 -74.55135 30553 ft 445 kts 79°
2026-05-08 14:26 18.27147 -74.51939 30841 ft 447 kts 80°
2026-05-08 14:26 18.27587 -74.48666 31096 ft 450 kts 80°
2026-05-08 14:26 18.28030 -74.45412 31385 ft 451 kts 79°
2026-05-08 14:26 18.28482 -74.42139 31630 ft 454 kts 79°
2026-05-08 14:27 18.28943 -74.38828 31885 ft 456 kts 79°
2026-05-08 14:27 18.29408 -74.35508 32130 ft 459 kts 79°
2026-05-08 14:27 18.29877 -74.32178 32353 ft 462 kts 80°
2026-05-08 14:27 18.30345 -74.28856 32575 ft 464 kts 80°
2026-05-08 14:28 18.30824 -74.25462 32842 ft 466 kts 80°
2026-05-08 14:28 18.31291 -74.22144 33359 ft 462 kts 80°
2026-05-08 14:28 18.31761 -74.18804 33827 ft 460 kts 80°
2026-05-08 14:28 18.32228 -74.15488 34187 ft 459 kts 80°
2026-05-08 14:29 18.32696 -74.12161 34601 ft 458 kts 80°
2026-05-08 14:29 18.33160 -74.08858 34988 ft 456 kts 80°
2026-05-08 14:29 18.33624 -74.05551 35066 ft 460 kts 80°
2026-05-08 14:30 18.34564 -73.98853 35075 ft 464 kts 80°
2026-05-08 14:30 18.35497 -73.92185 35070 ft 462 kts 80°
2026-05-08 14:31 18.36427 -73.85514 35064 ft 462 kts 80°
2026-05-08 14:31 18.37356 -73.78841 35056 ft 463 kts 80°
2026-05-08 14:32 18.38749 -73.68800 35046 ft 463 kts 80°
2026-05-08 14:32 18.39677 -73.62087 35039 ft 462 kts 80°
2026-05-08 14:33 18.40593 -73.55443 35032 ft 462 kts 80°
2026-05-08 14:33 18.41516 -73.48732 35026 ft 462 kts 80°
2026-05-08 14:34 18.42430 -73.42068 35026 ft 462 kts 80°
2026-05-08 14:34 18.43342 -73.35394 35026 ft 462 kts 80°
2026-05-08 14:35 18.44261 -73.28666 35025 ft 462 kts 80°
2026-05-08 14:35 18.45169 -73.21986 35024 ft 462 kts 80°
2026-05-08 14:36 18.46073 -73.15309 35026 ft 462 kts 80°
2026-05-08 14:36 18.46981 -73.08610 35025 ft 462 kts 80°
2026-05-08 14:37 18.47882 -73.01937 35020 ft 462 kts 80°
2026-05-08 14:37 18.48779 -72.95268 35014 ft 462 kts 80°
2026-05-08 14:38 18.49680 -72.88581 35010 ft 461 kts 80°
2026-05-08 14:38 18.50600 -72.81927 35009 ft 462 kts 80°
2026-05-08 14:39 18.51531 -72.75240 35012 ft 461 kts 79°
2026-05-08 14:39 18.52455 -72.68564 35021 ft 461 kts 79°
2026-05-08 14:40 18.53373 -72.61898 35037 ft 461 kts 79°
2026-05-08 14:40 18.54283 -72.55260 35048 ft 460 kts 79°
2026-05-08 14:41 18.55194 -72.48586 35058 ft 460 kts 79°
2026-05-08 14:41 18.56091 -72.41915 35067 ft 460 kts 81°
2026-05-08 14:42 18.56253 -72.35191 35079 ft 464 kts 90°
2026-05-08 14:42 18.55857 -72.28405 35085 ft 464 kts 91°
2026-05-08 14:43 18.55417 -72.21589 35088 ft 464 kts 91°
2026-05-08 14:43 18.55035 -72.14864 35069 ft 463 kts 91°
2026-05-08 14:44 18.54694 -72.08086 35057 ft 462 kts 90°
2026-05-08 14:44 18.54377 -72.01341 35041 ft 462 kts 90°
2026-05-08 14:45 18.54066 -71.94601 35035 ft 462 kts 90°
2026-05-08 14:45 18.53758 -71.87862 35030 ft 463 kts 90°
2026-05-08 14:46 18.53447 -71.81075 35036 ft 463 kts 90°
2026-05-08 14:46 18.53135 -71.74313 35030 ft 462 kts 90°
2026-05-08 14:47 18.52823 -71.67612 35035 ft 461 kts 90°
2026-05-08 14:47 18.52507 -71.60864 35044 ft 461 kts 90°
2026-05-08 14:48 18.52189 -71.54110 35059 ft 461 kts 90°
2026-05-08 14:48 18.51869 -71.47379 35064 ft 462 kts 90°
2026-05-08 14:49 18.51545 -71.40646 35067 ft 461 kts 90°
2026-05-08 14:49 18.51220 -71.33912 35063 ft 461 kts 90°
2026-05-08 14:50 18.50894 -71.27214 35072 ft 461 kts 90°
2026-05-08 14:50 18.50563 -71.20467 35072 ft 460 kts 90°
2026-05-08 14:51 18.50231 -71.13766 35080 ft 460 kts 90°
2026-05-08 14:51 18.49898 -71.07066 35088 ft 460 kts 90°
2026-05-08 14:52 18.49392 -70.96980 35098 ft 461 kts 90°
2026-05-08 14:53 18.49050 -70.90209 35096 ft 461 kts 90°
2026-05-08 14:53 18.48709 -70.83509 35097 ft 460 kts 90°
2026-05-08 14:54 18.48364 -70.76788 35094 ft 460 kts 90°
2026-05-08 14:54 18.48017 -70.70067 35101 ft 460 kts 90°
2026-05-08 14:55 18.47668 -70.63370 35108 ft 460 kts 90°
2026-05-08 14:55 18.47317 -70.56644 35112 ft 460 kts 90°
2026-05-08 14:56 18.46963 -70.49944 35120 ft 461 kts 90°
2026-05-08 14:56 18.46605 -70.43207 35120 ft 460 kts 90°
2026-05-08 14:57 18.46248 -70.36517 35109 ft 460 kts 90°
2026-05-08 14:57 18.45886 -70.29805 35106 ft 460 kts 90°
2026-05-08 14:58 18.45524 -70.23086 35095 ft 459 kts 90°
2026-05-08 14:58 18.45158 -70.16387 35081 ft 459 kts 90°
2026-05-08 14:59 18.44705 -70.09650 35067 ft 460 kts 92°
2026-05-08 14:59 18.43792 -69.99599 35050 ft 462 kts 92°
2026-05-08 15:00 18.43386 -69.92893 35048 ft 459 kts 88°
2026-05-08 15:00 18.43358 -69.86175 35049 ft 459 kts 86°
2026-05-08 15:01 18.43393 -69.79511 35049 ft 458 kts 86°
2026-05-08 15:01 18.43412 -69.72806 35048 ft 459 kts 86°
2026-05-08 15:02 18.43406 -69.66078 35049 ft 459 kts 86°
2026-05-08 15:02 18.43537 -69.59411 35049 ft 459 kts 84°
2026-05-08 15:03 18.43779 -69.52711 35051 ft 458 kts 84°
2026-05-08 15:03 18.44022 -69.46010 35058 ft 458 kts 84°
2026-05-08 15:04 18.44242 -69.39304 35058 ft 459 kts 84°
2026-05-08 15:04 18.44452 -69.32600 35055 ft 458 kts 85°
2026-05-08 15:05 18.44655 -69.25940 35057 ft 459 kts 85°
2026-05-08 15:05 18.44852 -69.19230 35057 ft 458 kts 85°
2026-05-08 15:06 18.45044 -69.12515 35060 ft 458 kts 85°
2026-05-08 15:06 18.45233 -69.05848 35062 ft 458 kts 85°
2026-05-08 15:07 18.45422 -68.99130 35060 ft 458 kts 85°
2026-05-08 15:07 18.45604 -68.92478 35051 ft 457 kts 85°
2026-05-08 15:08 18.45788 -68.85770 35050 ft 458 kts 85°
2026-05-08 15:08 18.45972 -68.79064 35048 ft 458 kts 85°
2026-05-08 15:09 18.46149 -68.72395 35045 ft 457 kts 84°
2026-05-08 15:09 18.46327 -68.65720 35043 ft 456 kts 84°
2026-05-08 15:10 18.46499 -68.59061 35040 ft 457 kts 85°
2026-05-08 15:10 18.46671 -68.52371 35039 ft 457 kts 85°
2026-05-08 15:11 18.46838 -68.45724 35039 ft 458 kts 84°
2026-05-08 15:11 18.47003 -68.39050 35043 ft 457 kts 84°
2026-05-08 15:12 18.47166 -68.32330 35043 ft 458 kts 85°
2026-05-08 15:12 18.47326 -68.25683 35047 ft 456 kts 85°
2026-05-08 15:13 18.47487 -68.19001 35045 ft 456 kts 85°
2026-05-08 15:13 18.47645 -68.12309 35041 ft 456 kts 85°
2026-05-08 15:14 18.47802 -68.05639 35045 ft 457 kts 85°
2026-05-08 15:14 18.47892 -67.99010 35042 ft 458 kts 88°
2026-05-08 15:15 18.47434 -67.92303 35038 ft 461 kts 92°
2026-05-08 15:15 18.46742 -67.85605 35037 ft 461 kts 92°
2026-05-08 15:16 18.46041 -67.78916 35038 ft 459 kts 92°
2026-05-08 15:16 18.45372 -67.72225 35035 ft 460 kts 91°
2026-05-08 15:17 18.44732 -67.65591 35034 ft 460 kts 91°
2026-05-08 15:17 18.44097 -67.58898 35037 ft 459 kts 91°
2026-05-08 15:18 18.43463 -67.52206 35034 ft 459 kts 91°
2026-05-08 15:18 18.42827 -67.45527 35035 ft 460 kts 91°
2026-05-08 15:19 18.42191 -67.38860 35034 ft 458 kts 91°
2026-05-08 15:19 18.41552 -67.32179 35042 ft 459 kts 91°
2026-05-08 15:20 18.40913 -67.25520 35042 ft 458 kts 92°
2026-05-08 15:20 18.40274 -67.18854 35045 ft 459 kts 91°
2026-05-08 15:21 18.39630 -67.12175 35047 ft 459 kts 91°
2026-05-08 15:21 18.38982 -67.05521 35048 ft 459 kts 91°
2026-05-08 15:22 18.38334 -66.98863 35052 ft 458 kts 91°
2026-05-08 15:22 18.37686 -66.92220 35054 ft 458 kts 91°
2026-05-08 15:23 18.37031 -66.85535 35058 ft 457 kts 91°
2026-05-08 15:23 18.36379 -66.78883 35065 ft 458 kts 91°
2026-05-08 15:24 18.35726 -66.72270 35064 ft 458 kts 91°
2026-05-08 15:24 18.35067 -66.65610 35070 ft 458 kts 91°
2026-05-08 15:25 18.34405 -66.58948 35071 ft 457 kts 91°
2026-05-08 15:25 18.33743 -66.52322 35071 ft 458 kts 91°
2026-05-08 15:26 18.33079 -66.45702 35073 ft 457 kts 91°
2026-05-08 15:26 18.32410 -66.39050 35082 ft 457 kts 91°
2026-05-08 15:27 18.31742 -66.32405 35089 ft 458 kts 91°
2026-05-08 15:27 18.31073 -66.25772 35094 ft 458 kts 91°
2026-05-08 15:28 18.30395 -66.19095 35095 ft 457 kts 91°
2026-05-08 15:28 18.29721 -66.12479 35088 ft 456 kts 91°
2026-05-08 15:29 18.29042 -66.05846 35077 ft 456 kts 91°
2026-05-08 15:29 18.28363 -65.99221 35066 ft 457 kts 91°
2026-05-08 15:30 18.27682 -65.92628 35072 ft 457 kts 91°
2026-05-08 15:30 18.26995 -65.85983 35076 ft 458 kts 91°
2026-05-08 15:31 18.26309 -65.79346 35072 ft 457 kts 91°
2026-05-08 15:31 18.25619 -65.72714 35078 ft 457 kts 91°
2026-05-08 15:32 18.24929 -65.66097 35067 ft 456 kts 91°
2026-05-08 15:32 18.24232 -65.59450 35054 ft 457 kts 91°
2026-05-08 15:33 18.23536 -65.52824 35042 ft 457 kts 91°
2026-05-08 15:33 18.22838 -65.46191 35032 ft 457 kts 91°
2026-05-08 15:34 18.22142 -65.39587 35035 ft 458 kts 91°
2026-05-08 15:34 18.21441 -65.32970 35034 ft 457 kts 91°
2026-05-08 15:35 18.20735 -65.26338 35032 ft 457 kts 91°
2026-05-08 15:35 18.20024 -65.19698 35034 ft 456 kts 92°
2026-05-08 15:36 18.19319 -65.13128 35034 ft 457 kts 91°
2026-05-08 15:36 18.18604 -65.06471 35036 ft 458 kts 91°
2026-05-08 15:37 18.17886 -64.99842 35038 ft 456 kts 91°
2026-05-08 15:37 18.17029 -64.93237 35038 ft 460 kts 95°
2026-05-08 15:38 18.15813 -64.86627 35037 ft 459 kts 96°
2026-05-08 15:38 18.14538 -64.80085 35035 ft 459 kts 96°
2026-05-08 15:39 18.13279 -64.73511 35034 ft 459 kts 96°
2026-05-08 15:39 18.12047 -64.66925 35030 ft 460 kts 96°
2026-05-08 15:40 18.10832 -64.60365 35031 ft 459 kts 95°
2026-05-08 15:40 18.09623 -64.53825 34868 ft 449 kts 95°
2026-05-08 15:41 18.09025 -64.50600 34122 ft 450 kts 95°
2026-05-08 15:41 18.08436 -64.47391 33007 ft 458 kts 96°
2026-05-08 15:41 18.07835 -64.44101 32108 ft 462 kts 96°
2026-05-08 15:41 18.07226 -64.40786 31375 ft 461 kts 96°
2026-05-08 15:42 18.06617 -64.37485 30321 ft 466 kts 96°
2026-05-08 15:42 18.06007 -64.34193 30032 ft 454 kts 96°
2026-05-08 15:42 18.05406 -64.30971 29409 ft 452 kts 97°
2026-05-08 15:42 18.04802 -64.27716 28402 ft 456 kts 97°
2026-05-08 15:43 18.04198 -64.24445 27323 ft 462 kts 97°
2026-05-08 15:43 18.03582 -64.21108 26241 ft 467 kts 97°
2026-05-08 15:43 18.02968 -64.17791 25179 ft 470 kts 97°
2026-05-08 15:43 18.02346 -64.14431 24115 ft 473 kts 97°
2026-05-08 15:44 18.01715 -64.11042 23057 ft 475 kts 98°
2026-05-08 15:44 18.01082 -64.07651 22021 ft 476 kts 98°
2026-05-08 15:44 18.00455 -64.04308 21666 ft 460 kts 98°
2026-05-08 15:44 17.99841 -64.01054 21333 ft 446 kts 98°
2026-05-08 15:45 17.99252 -63.97932 21055 ft 431 kts 98°
2026-05-08 15:45 17.98677 -63.94882 20764 ft 419 kts 98°
2026-05-08 15:45 17.98123 -63.91928 20162 ft 415 kts 98°
2026-05-08 15:45 17.97569 -63.88962 19363 ft 417 kts 98°
2026-05-08 15:46 17.97012 -63.85974 18522 ft 418 kts 99°
2026-05-08 15:46 17.96456 -63.82991 17686 ft 419 kts 99°
2026-05-08 15:46 17.95902 -63.80021 16874 ft 419 kts 99°
2026-05-08 15:46 17.95340 -63.77023 16058 ft 418 kts 99°
2026-05-08 15:47 17.94784 -63.74060 15189 ft 410 kts 99°
2026-05-08 15:47 17.94244 -63.71195 14334 ft 401 kts 98°
2026-05-08 15:47 17.93817 -63.68366 13472 ft 392 kts 94°
2026-05-08 15:47 17.93722 -63.65550 12600 ft 382 kts 84°
2026-05-08 15:48 17.94480 -63.60179 10844 ft 366 kts 76°
2026-05-08 15:48 17.95011 -63.57620 10008 ft 358 kts 75°
2026-05-08 15:48 17.95543 -63.55112 9265 ft 349 kts 76°
2026-05-08 15:49 17.96045 -63.52678 8529 ft 340 kts 76°
2026-05-08 15:49 17.96527 -63.50260 7780 ft 333 kts 77°
2026-05-08 15:49 17.96979 -63.47939 7041 ft 326 kts 77°
2026-05-08 15:49 17.97421 -63.45628 6469 ft 314 kts 77°
2026-05-08 15:50 17.97841 -63.43420 6006 ft 306 kts 77°
2026-05-08 15:50 17.98255 -63.41239 5523 ft 303 kts 78°
2026-05-08 15:50 17.98664 -63.39080 5039 ft 301 kts 78°
2026-05-08 15:50 17.99066 -63.36961 4551 ft 298 kts 78°
2026-05-08 15:51 17.99471 -63.34830 4107 ft 294 kts 78°
2026-05-08 15:51 17.99861 -63.32780 3927 ft 281 kts 79°
2026-05-08 15:51 18.00234 -63.30806 3809 ft 267 kts 79°
2026-05-08 15:51 18.00587 -63.28937 3684 ft 255 kts 79°
2026-05-08 15:52 18.00930 -63.27134 3576 ft 252 kts 79°
2026-05-08 15:52 18.01270 -63.25337 3457 ft 252 kts 79°
2026-05-08 15:52 18.01620 -63.23550 3315 ft 239 kts 78°
2026-05-08 15:52 18.01939 -63.21960 3088 ft 213 kts 78°
2026-05-08 15:53 18.02235 -63.20521 2869 ft 191 kts 77°
2026-05-08 15:53 18.02548 -63.19196 2427 ft 183 kts 73°
2026-05-08 15:53 18.03070 -63.18013 1959 ft 180 kts 64°
2026-05-08 15:53 18.03534 -63.16832 1620 ft 162 kts 77°
2026-05-08 15:54 18.03661 -63.15727 1274 ft 150 kts 89°
2026-05-08 15:54 18.03608 -63.14673 906 ft 142 kts 93°
2026-05-08 15:54 18.03724 -63.13657 525 ft 140 kts 82°
2026-05-08 15:54 18.03853 -63.12658 205 ft 137 kts 85°
2026-05-08 15:55 18.03985 -63.11664 40 ft 134 kts 83°
2026-05-08 15:55 18.04157 -63.10458 19 ft 24 kts 83°
2026-05-08 15:55 18.04158 -63.10408 19 ft 1 kts 164°
2026-05-08 15:56 18.04152 -63.10428 19 ft 7 kts 261°
2026-05-08 15:56 18.04133 -63.10565 17 ft 31 kts 262°
2026-05-08 15:56 18.04090 -63.10872 16 ft 46 kts 262°
2026-05-08 15:56 18.04050 -63.11197 19 ft 35 kts 262°
2026-05-08 15:57 18.04087 -63.11288 19 ft 11 kts 351°
2026-05-08 15:57 18.04167 -63.11300 19 ft 14 kts 352°
2026-05-08 15:57 18.04255 -63.11347 21 ft 12 kts 325°
2026-05-08 15:57 18.04322 -63.11360 22 ft 3 kts 351°
2026-05-08 15:58 18.04329 -63.11361 22 ft 0 kts 352°